Free Severe Weather Alerts by Email and Text Message   

 
Follow iAlert.com on twitter @ialertcom
Search For Active Alerts in Your Area  
  Hi Guest:  [ Sign-up / Services ] [ Login ]

Current weather by "City, St" or "zip code"  

 

Advertise Here

Hazardous Weather Conditions

No active alerts for PHILADELPHIA, PENNSYLVANIA

Current Conditions: PHILADELPHIA, PENNSYLVANIA

Partly Cloudy


76.0 F

Last Updated on Oct 23 2017, 1:54 pm EDT
Humidity: 64%
Wind Speed: SE 12.7 G 19.6 mph
Barometer 30.17 in
Dewpoint: 63.0 F
Visibility: 10.00 mi
Precip: --
Heat Index: NA
Wind Chill: NA
Current conditions at:

Philadelphia, Northeast Philadelphia Airport, PA (KPNE)

Lat: 40.07 Lon: -75.013

Local Radar Image active severe weather and emergency alerts image image weather storm and storm spotter reports image weather observation monitoring service image
Local
Radar
Active
Alerts
Storm Reports Weather
Monitoring

Weather Alert Notification Services


ialert severe weather and emergency alerts by text message and email ialert daily weather forecast by email and text message service ialert real-time weather-observation monitoring and alert notification service ialert storm report monitoring alert notification

Observation History for PHILADELPHIA, PENNSYLVANIA


Time Wind
(mph)
Vis
(mi)
Weather Precip (in) Temperature (F) Relative
Humidity
Wind
Chill
(°F)
Heat
Index
(°F)
Pressure
Air Dwpt altimeter
(in)
sea level
(mb)
1:54 pm EDT SE 12.7 G 19.6 10.00 Partly Cloudy -- 76.0 63.0 64% NA NA 30.17 1021.4
12:54 pm EDT SE 12.7 G 20.7 10.00 Overcast -- 75.0 62.1 64% NA NA 30.20 1022.7
11:54 am EDT SE 10.4 10.00 Overcast -- 74.0 64.0 71% NA NA 30.23 1023.6
10:54 am EDT N 0.0 10.00 Overcast -- 71.0 63.0 76% NA NA 30.26 1024.5
9:54 am EDT SE 5.8 7.00 Overcast -- 66.0 63.0 90% NA NA 30.28 1025.3
8:54 am EDT SE 5.8 0.25 Fog -- 64.0 62.1 93% NA NA 30.30 1025.8
7:54 am EDT E 3.5 0.25 Fog -- 63.0 61.0 93% NA NA 30.30 1025.8
6:54 am EDT NE 3.5 1.50 Fog/Mist -- 63.0 60.1 90% NA NA 30.30 1026.0
5:54 am EDT E 3.5 1.75 Fog/Mist -- 63.0 60.1 90% NA NA 30.30 1026.2
4:54 am EDT N 0.0 6.00 Fog/Mist -- 63.0 60.1 90% NA NA 30.32 1026.7
3:54 am EDT N 0.0 8.00 Overcast -- 63.0 59.0 87% NA NA 30.32 1026.6
2:54 am EDT E 3.5 10.00 Overcast -- 62.0 57.9 86% NA NA 30.33 1027.1
1:54 am EDT E 6.9 10.00 Overcast -- 61.0 57.0 87% 60 NA 30.35 1027.6
12:54 am EDT E 4.6 10.00 Overcast -- 61.0 55.0 81% 61 NA 30.36 1028.0
11:54 pm EDT NE 3.5 10.00 Mostly Cloudy -- 59.0 54.0 83% NA NA 30.37 1028.5
10:54 pm EDT N 0.0 10.00 Overcast -- 60.0 53.1 78% NA NA 30.38 1028.6
9:54 pm EDT N 0.0 10.00 Fair -- 61.0 51.1 70% NA NA 30.39 1029.0
8:54 pm EDT SE 4.6 10.00 Fair -- 63.0 50.0 63% 64 NA 30.37 1028.4
7:54 pm EDT SE 3.5 10.00 Fair -- 65.0 48.9 56% NA NA 30.36 1028.1
6:54 pm EDT SE 3.5 10.00 Fair -- 69.0 48.0 47% NA NA 30.36 1027.9
5:54 pm EDT SE 5.8 10.00 Fair -- 72.0 48.0 43% NA NA 30.35 1027.7
4:54 pm EDT 6.9 10.00 Fair -- 75.0 51.1 43% NA NA 30.35 1027.8
3:54 pm EDT S 6.9 10.00 Fair -- 76.0 46.9 36% NA NA 30.36 1028.0
2:54 pm EDT N 0.0 10.00 Fair -- 76.0 48.9 39% NA NA 30.37 1028.5

Regional Weather Observation:


Pottstown, Pottstown Limerick Airport, PA (KPTW)

Mostly Cloudy
72.0 F

Doylestown, Doylestown Airport, PA (KDYL)

Overcast
71.0 F

Quakertown Airport, PA (KUKT)

Mostly Cloudy
72.0 F

Allentown Queen City Municipal Airport, PA (KXLL)

Overcast
72.0 F

Reading, Reading Regional Airport, PA (KRDG)

Mostly Cloudy
72.0 F

Philadelphia, Philadelphia International Airport, PA (KPHL)

Overcast
77.0 F

Advertise Here


Advertise Here